Stations météo

Publicité
Quimper, France (7201): Température de l'air & dewpoint: 13.02.2020 07:00:00 - 19.02.2020 07:00:00 (CET)Quimper, France (7201): Température de l'air 5cm: 13.02.2020 07:00:00 - 19.02.2020 07:00:00 (CET)Quimper, France (7201): Température de l'air -20cm: 13.02.2020 07:00:00 - 19.02.2020 07:00:00 (CET)Quimper, France (7201): Vitesse du vent & gusts: 13.02.2020 07:00:00 - 19.02.2020 07:00:00 (CET)Quimper, France (7201): Direction du vent: 13.02.2020 07:00:00 - 19.02.2020 07:00:00 (CET)Quimper, France (7201): reduced air pressure: 13.02.2020 07:00:00 - 19.02.2020 07:00:00 (CET)Quimper, France (7201): visibility: 13.02.2020 07:00:00 - 19.02.2020 07:00:00 (CET)Quimper, France (7201): Ensoleillement: 13.02.2020 07:00:00 - 19.02.2020 07:00:00 (CET)Quimper, France (7201): Quantités de précipitations: 13.02.2020 07:00:00 - 19.02.2020 07:00:00 (CET)
Date & Time tt [°C] td [°C] tt 5cm [°C] tt -20cm [°C] ff [km/h] ff [knt] fx [km/h] fx [knt] dd ppp [hPa] vv [km] sd [min] rr [mm]
19.02.2020 07:00:00 - - - - - - - - - - - - -
19.02.2020 06:00:00 7,5 6,0 6,6 9,2 7 4 11 6 SW 1028,1 19 0 0,0
19.02.2020 05:00:00 7,6 6,2 6,8 9,2 6 3 23 13 WSW 1027,9 19 0 0,0
19.02.2020 04:00:00 8,3 6,4 7,4 9,2 18 10 46 25 NW 1027,9 18 0 0,0
19.02.2020 03:00:00 8,8 6,8 7,8 9,2 21 11 42 23 WNW 1027,6 42 0 0,0
19.02.2020 02:00:00 8,8 6,6 7,5 9,2 30 16 62 34 WNW 1027,7 50 0 0,4
19.02.2020 01:00:00 9,8 7,9 8,4 9,2 29 15 54 29 W 1027,2 8 0 0,0
19.02.2020 00:00:00 9,7 7,8 8,6 9,2 31 17 62 33 W 1027,6 8 0 0,2
18.02.2020 23:00:00 9,8 7,4 9,3 9,2 31 17 59 32 W 1027,9 16 0 0,0
18.02.2020 22:00:00 9,9 7,5 9,2 9,2 29 16 49 27 W 1027,6 14 0 0,0
18.02.2020 21:00:00 9,6 7,2 8,7 9,1 27 15 41 22 W 1027,8 17 0 0,0
18.02.2020 20:00:00 9,6 7,2 8,6 9,1 25 14 43 23 W 1027,9 18 0 0,0
18.02.2020 19:00:00 9,6 7,0 8,3 9,1 24 13 42 23 W 1027,3 20 18 0,0
18.02.2020 18:00:00 9,5 7,6 8,3 9,1 17 9 55 30 W 1027,5 12 28 0,6
18.02.2020 17:00:00 10,6 6,2 8,1 9,0 27 15 45 24 W 1028,1 19 19 0,0
18.02.2020 16:00:00 9,6 6,5 7,9 9,0 23 13 54 29 W 1028,3 34 27 0,2
18.02.2020 15:00:00 11,2 6,3 8,6 9,0 36 19 54 29 WSW 1028,7 20 30 0,0
18.02.2020 14:00:00 11,1 6,0 10,8 9,0 31 17 50 27 WSW 1029,1 20 34 0,0
18.02.2020 13:00:00 10,8 5,3 10,7 9,0 33 18 46 25 WSW 1029,7 48 42 0,0
18.02.2020 12:00:00 10,4 5,4 10,3 9,0 26 14 45 25 W 1029,7 20 46 0,0
18.02.2020 11:00:00 10,6 6,0 9,0 9,1 24 13 40 22 W 1029,7 20 54 0,0
18.02.2020 10:00:00 8,6 6,0 5,8 9,1 11 6 30 16 W 1029,9 20 28 0,2
18.02.2020 09:00:00 7,0 5,0 3,7 9,1 13 7 19 11 W 1029,6 51 0 0,0
18.02.2020 08:00:00 5,6 3,8 3,5 9,2 10 5 19 10 W 1029,2 39 0 0,0
18.02.2020 07:00:00 6,8 5,1 5,4 9,2 11 6 23 12 W 1028,6 17 0 0,2
18.02.2020 06:00:00 7,2 4,8 5,6 9,3 16 9 48 26 W 1028,5 18 0 0,8
18.02.2020 05:00:00 7,4 4,9 5,5 9,3 13 7 29 15 W 1028,4 35 0 0,0
18.02.2020 04:00:00 6,1 4,9 4,9 9,4 13 7 24 13 WSW 1028,7 20 0 0,0
18.02.2020 03:00:00 6,5 4,0 5,2 9,4 20 11 61 33 W 1028,8 13 0 0,2
18.02.2020 02:00:00 7,2 4,2 5,6 9,4 16 9 27 14 WSW 1028,7 20 0 0,0
18.02.2020 01:00:00 7,2 3,8 5,5 9,5 17 9 34 18 W 1028,7 46 0 0,2
18.02.2020 00:00:00 7,4 4,0 6,1 9,5 13 7 29 16 W 1028,3 35 0 0,0
17.02.2020 23:00:00 6,9 3,1 5,8 9,6 13 7 36 19 W 1028,1 42 0 0,0
17.02.2020 22:00:00 7,2 2,7 5,4 9,6 17 9 35 19 W 1027,5 20 0 0,0
17.02.2020 21:00:00 6,2 2,6 4,5 9,6 12 7 26 14 W 1026,9 20 0 0,0
17.02.2020 20:00:00 6,8 2,7 5,8 9,6 14 8 33 18 W 1025,9 45 0 0,0
17.02.2020 19:00:00 7,7 3,0 6,7 9,6 20 11 49 27 W 1025,0 52 7 0,0
17.02.2020 18:00:00 8,6 3,8 6,8 9,6 23 12 48 26 W 1023,7 20 23 0,0
17.02.2020 17:00:00 8,9 2,5 8,1 9,6 30 16 63 34 W 1023,2 20 40 0,0
17.02.2020 16:00:00 9,7 4,5 6,2 9,7 36 20 64 35 W 1022,2 20 43 0,4
17.02.2020 15:00:00 10,0 3,0 10,4 9,7 40 22 72 39 W - 20 48 0,0
17.02.2020 14:00:00 10,3 3,3 9,6 9,7 29 15 63 34 W 1021,2 38 36 0,0
17.02.2020 13:00:00 10,5 2,6 9,6 9,8 35 19 60 32 W 1021,0 20 39 0,0
17.02.2020 12:00:00 10,5 4,0 11,2 9,8 31 17 69 37 W 1020,1 19 58 0,0
17.02.2020 11:00:00 10,1 4,2 9,0 9,9 29 16 55 30 W 1019,4 18 36 0,0
17.02.2020 10:00:00 9,3 3,7 6,7 9,9 30 16 55 30 W 1018,5 18 51 0,0
17.02.2020 09:00:00 7,3 3,9 5,8 9,9 26 14 59 32 W 1017,5 20 0 0,0
17.02.2020 08:00:00 8,7 4,1 7,8 10,0 28 15 54 29 W 1016,4 47 0 0,0
17.02.2020 07:00:00 8,2 4,4 7,4 10,1 22 12 42 23 WSW 1015,4 20 0 0,0
17.02.2020 06:00:00 8,2 5,3 7,6 10,1 23 13 40 22 WSW 1015,3 19 0 0,0
17.02.2020 05:00:00 8,2 4,2 6,0 10,2 30 16 55 30 W 1015,1 50 0 0,2
17.02.2020 04:00:00 7,7 3,9 5,8 10,2 19 11 47 25 W 1015,1 49 0 0,0
17.02.2020 03:00:00 7,2 4,3 5,9 10,3 24 13 71 38 W 1015,4 52 0 0,4
17.02.2020 02:00:00 9,2 4,6 8,2 10,4 23 12 36 19 WSW 1015,0 18 0 0,0
17.02.2020 01:00:00 9,0 4,4 8,3 10,4 17 9 29 16 WSW 1014,8 19 0 0,0
17.02.2020 00:00:00 8,9 4,3 8,1 10,5 16 9 29 15 WSW 1014,7 17 0 0,0
16.02.2020 23:00:00 8,6 5,2 7,9 10,5 15 8 29 16 WSW 1014,0 13 0 0,0
16.02.2020 22:00:00 8,4 5,0 7,8 10,5 19 10 32 18 WSW 1013,2 14 0 0,0
16.02.2020 21:00:00 8,7 5,6 7,4 10,6 18 10 34 18 W 1012,2 12 0 0,0
16.02.2020 20:00:00 8,1 6,4 7,0 10,6 14 8 47 26 WSW 1011,7 11 0 0,3
16.02.2020 19:00:00 8,0 5,8 6,8 10,6 18 10 49 27 WSW 1010,0 18 0 3,2
16.02.2020 18:00:00 8,6 7,1 7,4 10,6 29 16 54 29 WSW 1009,0 6 0 1,4
16.02.2020 17:00:00 9,4 6,7 7,9 10,6 32 17 55 30 WSW 1008,2 14 0 0,0
16.02.2020 16:00:00 9,2 8,3 8,5 10,5 18 10 40 22 WSW 1007,0 20 0 0,2
16.02.2020 15:00:00 8,9 8,0 8,4 10,5 29 16 76 41 W 1006,7 3,3 0 2,0
16.02.2020 14:00:00 13,2 12,7 12,8 10,5 47 26 109 59 SW 1002,2 2,5 0 1,8
16.02.2020 13:00:00 13,7 12,6 13,0 10,4 63 34 106 57 SSW 1002,0 3,0 0 0,2
16.02.2020 12:00:00 14,4 12,4 13,4 10,4 60 32 101 55 SW 1002,6 12 0 0,0
16.02.2020 11:00:00 14,0 12,4 12,9 10,3 57 31 111 60 SW 1003,0 14 0 0,0
16.02.2020 10:00:00 13,8 12,4 12,9 10,3 53 29 103 55 SW 1003,3 13 0 0,2
16.02.2020 09:00:00 13,6 12,5 12,8 10,3 51 28 95 51 SW 1003,3 7 0 0,2
16.02.2020 08:00:00 13,7 12,4 12,7 10,2 53 28 100 54 SW 1003,6 7 0 0,2
16.02.2020 07:00:00 13,8 12,4 12,8 10,2 51 28 93 50 SW 1003,8 6 0 0,0
16.02.2020 06:00:00 13,8 12,2 13,5 10,1 49 26 94 51 SW 1004,3 11 0 0,0
16.02.2020 05:00:00 13,6 12,2 12,7 10,1 53 28 99 53 SW 1004,9 10 0 0,2
16.02.2020 04:00:00 13,5 12,2 12,5 10,1 51 27 83 45 SW 1005,4 8 0 0,2
16.02.2020 03:00:00 13,1 12,3 12,3 10,0 50 27 88 48 SSW 1005,8 4,7 0 0,8
16.02.2020 02:00:00 12,8 12,3 12,3 10,0 43 23 80 43 SW 1006,3 3,1 0 2,1
16.02.2020 01:00:00 12,8 12,2 12,3 9,9 42 23 77 41 SW 1006,9 6 0 0,8
16.02.2020 00:00:00 12,9 12,1 12,3 9,9 43 23 77 42 SW 1007,5 6 0 1,2
15.02.2020 23:00:00 12,8 12,2 12,3 9,8 39 21 71 38 SW 1008,4 4,8 0 1,0
15.02.2020 22:00:00 12,8 12,2 12,2 9,8 38 21 75 40 SW 1008,6 7 0 0,4
15.02.2020 21:00:00 12,6 12,1 12,1 9,8 39 21 73 40 SW 1009,1 3,9 0 1,6
15.02.2020 20:00:00 12,7 11,9 12,0 9,7 38 20 72 39 SW 1009,6 6 0 0,0
15.02.2020 19:00:00 12,4 11,8 11,7 9,7 41 22 81 44 SSW 1009,5 7 0 1,5
15.02.2020 18:00:00 12,4 11,5 11,6 9,6 41 22 80 43 SSW 1009,7 3,2 0 0,6
15.02.2020 17:00:00 12,1 11,5 11,4 9,6 36 20 74 40 SSW 1010,0 4,0 0 3,6
15.02.2020 16:00:00 12,1 11,2 11,4 9,6 35 19 72 39 SSW 1010,7 9 0 1,6
15.02.2020 15:00:00 12,4 10,6 11,6 9,6 42 23 75 41 SSW 1010,9 19 0 0,0
15.02.2020 14:00:00 12,5 10,6 12,2 9,5 42 23 71 38 SSW 1012,2 18 0 0,0
15.02.2020 13:00:00 12,5 10,6 12,4 9,5 38 20 76 41 SSW 1013,1 18 0 0,0
15.02.2020 12:00:00 12,6 10,8 12,5 9,5 36 19 66 35 SSW 1013,1 20 0 0,0
15.02.2020 11:00:00 12,4 11,0 12,3 9,4 36 20 66 36 SSW 1014,3 20 0 0,0
15.02.2020 10:00:00 12,2 10,8 12,0 9,4 32 18 59 32 SSW 1015,2 20 0 0,0
15.02.2020 09:00:00 12,1 11,0 11,5 9,4 31 17 52 28 SSW 1015,7 19 0 0,0
15.02.2020 08:00:00 11,8 11,0 11,3 9,4 28 15 54 29 SSW 1016,0 19 0 0,0
15.02.2020 07:00:00 11,8 11,0 11,2 9,3 27 15 54 29 SSW 1015,9 19 0 0,0
15.02.2020 06:00:00 12,2 11,1 11,9 9,3 29 16 56 30 SSW 1016,4 19 0 0,0
15.02.2020 05:00:00 12,0 11,1 11,8 9,2 27 14 53 28 SSW 1017,0 18 0 0,0
15.02.2020 04:00:00 12,0 11,1 11,8 9,2 24 13 45 24 SSW 1017,6 17 0 0,0
15.02.2020 03:00:00 12,0 11,1 11,8 9,2 21 12 41 22 SSW 1018,6 17 0 0,0
15.02.2020 02:00:00 12,1 11,3 11,8 9,1 23 13 42 23 SSW 1018,9 15 0 0,0
15.02.2020 01:00:00 12,1 11,3 11,5 9,1 26 14 50 27 SSW 1019,1 18 0 0,0
15.02.2020 00:00:00 11,9 11,3 11,4 9,0 22 12 38 21 SSW 1019,6 10 0 0,0
14.02.2020 23:00:00 11,8 11,0 11,2 9,0 20 11 38 20 SSW 1020,3 15 0 0,0
14.02.2020 22:00:00 11,7 11,1 11,2 9,0 21 12 35 19 SSW 1020,7 8 0 0,0
14.02.2020 21:00:00 11,8 11,2 11,2 8,9 22 12 37 20 SSW 1021,0 8 0 0,0
14.02.2020 20:00:00 11,6 11,0 11,0 8,9 17 9 32 17 SSW 1021,1 11 0 0,0
14.02.2020 19:00:00 11,5 10,9 11,0 8,9 18 10 36 19 SSW 1021,1 6 0 0,0
14.02.2020 18:00:00 11,7 10,6 11,4 8,8 19 10 37 20 SSW 1021,0 13 0 0,0
14.02.2020 17:00:00 11,7 10,4 11,4 8,8 20 11 36 20 SSW 1021,3 8 0 0,0
14.02.2020 16:00:00 11,7 10,1 11,1 8,7 15 8 37 20 SSW 1021,3 10 0 0,0
14.02.2020 15:00:00 11,7 9,8 11,6 8,7 19 11 37 20 SSW 1021,4 6 0 0,0
14.02.2020 14:00:00 12,1 8,8 12,6 8,7 27 15 42 23 SSW 1021,9 14 4 0,0
14.02.2020 13:00:00 12,1 8,0 12,9 8,7 20 11 48 26 SSW 1022,5 16 40 0,0
14.02.2020 12:00:00 12,3 8,6 11,2 8,7 21 11 38 20 SSW 1022,6 15 7 0,0
14.02.2020 11:00:00 11,1 7,8 10,6 8,7 19 11 32 17 SW 1022,6 15 25 0,0
14.02.2020 10:00:00 10,2 7,4 9,0 8,8 18 10 33 18 SW 1022,8 14 7 0,0
14.02.2020 09:00:00 9,2 7,0 7,4 8,7 15 8 23 12 SSW 1022,1 13 0 0,0
14.02.2020 08:00:00 8,1 6,6 6,1 8,8 13 7 19 10 SSW 1021,7 10 0 0,0
14.02.2020 07:00:00 7,4 6,2 6,0 8,8 9 5 15 8 SW 1021,6 9 0 0,0
14.02.2020 06:00:00 7,1 5,9 5,4 8,8 7 4 14 7 SSW 1021,2 9 0 0,0
14.02.2020 05:00:00 7,3 5,9 6,0 8,8 11 6 16 9 WSW 1020,7 10 0 0,0
14.02.2020 04:00:00 8,5 6,3 7,4 8,8 10 6 22 12 W 1020,5 12 0 0,0
14.02.2020 03:00:00 9,2 7,1 8,3 8,8 13 7 23 13 W 1020,4 14 0 0,0
14.02.2020 02:00:00 9,2 7,0 8,4 8,8 14 8 24 13 W 1020,5 16 0 0,0
14.02.2020 01:00:00 9,4 6,7 7,8 8,8 14 7 24 13 W 1020,1 16 0 0,0
14.02.2020 00:00:00 9,0 5,9 8,2 8,8 16 8 36 20 W 1019,3 17 0 0,0
13.02.2020 23:00:00 9,7 6,8 8,4 8,8 19 11 43 23 WNW 1019,2 16 0 0,0
13.02.2020 22:00:00 9,8 6,7 9,1 8,8 21 11 46 25 WNW 1018,5 12 0 0,0
13.02.2020 21:00:00 9,8 7,2 8,6 8,8 25 14 48 26 WNW 1017,0 14 0 0,0
13.02.2020 20:00:00 9,9 6,2 8,1 8,8 34 19 64 34 WNW 1015,5 16 0 0,0
13.02.2020 19:00:00 9,7 7,3 8,1 8,7 35 19 59 32 WNW 1014,0 8 0 0,2
13.02.2020 18:00:00 9,9 7,1 8,4 8,7 34 18 66 35 WNW 1012,5 8 0 0,0
13.02.2020 17:00:00 10,0 7,2 8,5 8,7 40 22 70 38 WNW 1010,9 9 0 0,4
13.02.2020 16:00:00 10,1 7,0 8,6 8,7 34 18 86 46 WNW 1009,6 7 0 0,0
13.02.2020 15:00:00 11,1 6,6 8,9 8,7 45 24 78 42 W 1008,5 11 0 0,2
13.02.2020 14:00:00 11,0 6,9 10,5 8,7 49 27 92 50 W 1007,5 9 0 0,0
13.02.2020 13:00:00 10,9 6,2 8,8 8,7 51 27 91 49 W 1006,8 9 0 0,0
13.02.2020 12:00:00 10,8 5,7 10,2 8,7 45 25 87 47 W 1005,8 11 0 0,0
13.02.2020 11:00:00 10,9 5,0 9,0 8,7 48 26 90 48 W 1005,2 11 19 0,0
13.02.2020 10:00:00 10,4 5,0 9,6 8,6 54 29 91 49 W 1004,9 13 19 0,0
13.02.2020 09:00:00 10,0 4,8 7,4 8,6 44 24 74 40 W 1004,4 11 2 0,2
13.02.2020 08:00:00 10,0 4,8 9,0 8,6 43 23 77 42 W 1004,1 10 0 0,0
13.02.2020 07:00:00 10,1 5,1 9,4 8,6 35 19 69 38 W 1004,0 10 0 0,0

tt = Température de l'air
td = dewpoint
tt 5cm = Température de l'air 5cm
tt -20cm = Température de l'air -20cm
ff = Vitesse du vent
fx = gusts
dd = Direction du vent
ppp = reduced air pressure
vv = visibility
sd = Ensoleillement
rr = Quantités de précipitations

stations d'obs. à proximité